Weather History for KFDK - April, 2014

Change the Weather History Date:

Friday, April 25, 2014

  Actual Average (KHGR) Record (KHGR)
Temperature  
Mean Temperature 52 °F 56 °F  
Max Temperature 66 °F 66 °F 84 °F (2011)
Min Temperature 37 °F 46 °F 35 °F (1999)
Degree Days  
Heating Degree Days 14 10  
Month to date heating degree days 337  
Since 1 July heating degree days 4969  
Cooling Degree Days 0 1  
Month to date cooling degree days 7  
Year to date cooling degree days 8  
Growing Degree Days 2 (Base 50)    
Moisture  
Dew Point 42 °F    
Average Humidity 85    
Maximum Humidity 100    
Minimum Humidity 37    
Precipitation  
Precipitation 0.04 in 0.11 in 0.61 in (2004)
Month to date precipitation 3.02  
Year to date precipitation 11.63  
Sea Level Pressure  
Sea Level Pressure 29.94 in    
Wind  
Wind Speed 1 mph (ENE)    
Max Wind Speed 13 mph    
Max Gust Speed 21 mph    
Visibility 9 miles    
Events Rain    
T = Trace of Precipitation, MM = Missing Value Source: NWS Daily Summary

Daily Weather History Graph

Daily Weather History Graph

Search for Another Location

Airport or City:

Trip Planner

Search our weather history database for the weather conditions in past years. The results will help you decide how hot, cold, wet, or windy it might be!

Date:

Astronomy

Apr. 25, 2014 Rise Set
Actual Time 6:18 AM EDT 7:57 PM EDT
Civil Twilight 5:49 AM EDT 8:25 PM EDT
Nautical Twilight 5:15 AM EDT 9:00 PM EDT
Astronomical Twilight 4:38 AM EDT 9:37 PM EDT
Moon 4:03 AM EDT (4/25) 4:18 PM EDT (4/25)
Length of Visible Light 14h 35m
Length of Day
13h 38m
Waning Crescent, 15% of the Moon is Illuminated
Apr 25
Waning Crescent
Apr 29
New
May 6
First Quarter
May 14
Full
May 21
Last Quarter

Hourly Weather History & Observations

Time (EDT) Temp. Windchill Dew Point Humidity Pressure Visibility Wind Dir Wind Speed Gust Speed Precip Events Conditions
12:15 AM 42.8 °F - 41.0 °F 93% 30.05 in 10.0 mi Calm Calm - N/A   Clear
12:35 AM 41.0 °F - 37.4 °F 87% 30.05 in 10.0 mi Calm Calm - N/A   Clear
12:55 AM 39.2 °F - 37.4 °F 93% 30.05 in 10.0 mi Calm Calm - N/A   Clear
1:15 AM 41.0 °F - 37.4 °F 87% 30.04 in 10.0 mi Calm Calm - N/A   Clear
1:35 AM 41.0 °F - 37.4 °F 87% 30.04 in 10.0 mi Calm Calm - N/A   Clear
1:55 AM 39.2 °F - 37.4 °F 93% 30.03 in 10.0 mi Calm Calm - N/A   Clear
2:15 AM 37.4 °F 34.9 °F 37.4 °F 100% 30.02 in 10.0 mi NNE 3.5 mph - N/A   Clear
2:35 AM 37.4 °F - 35.6 °F 93% 30.03 in 10.0 mi Calm Calm - N/A   Clear
2:55 AM 39.2 °F - 33.8 °F 81% 30.03 in 10.0 mi Calm Calm - N/A   Clear
3:15 AM 39.2 °F - 35.6 °F 87% 30.04 in 10.0 mi Calm Calm - N/A   Clear
3:35 AM 39.2 °F - 37.4 °F 93% 30.04 in 10.0 mi Calm Calm - N/A   Clear
3:55 AM 41.0 °F 39.0 °F 37.4 °F 87% 30.04 in 10.0 mi NE 3.5 mph - N/A   Clear
4:15 AM 41.0 °F - 39.2 °F 93% 30.04 in 10.0 mi Calm Calm - N/A   Clear
4:35 AM 41.0 °F - 37.4 °F 87% 30.03 in 10.0 mi Calm Calm - N/A   Clear
4:55 AM 41.0 °F - 37.4 °F 87% 30.03 in 10.0 mi Calm Calm - N/A   Clear
5:15 AM 41.0 °F - 37.4 °F 87% 30.03 in 10.0 mi Calm Calm - N/A   Scattered Clouds
5:35 AM 42.8 °F - 41.0 °F 93% 30.03 in 10.0 mi Calm Calm - N/A   Mostly Cloudy
5:55 AM 42.8 °F - 37.4 °F 81% 30.04 in 10.0 mi Calm Calm - N/A   Overcast
6:15 AM 42.8 °F - 37.4 °F 81% 30.03 in 10.0 mi Calm Calm - N/A   Light Drizzle
6:35 AM 42.8 °F - 37.4 °F 81% 30.04 in 10.0 mi Calm Calm - N/A   Overcast
6:50 AM 44.6 °F - 39.2 °F 81% 30.03 in 10.0 mi Calm Calm - N/A   Mostly Cloudy
7:55 AM 48.2 °F - 42.8 °F 82% 30.02 in 10.0 mi Calm Calm - N/A   Mostly Cloudy
8:50 AM 53.6 °F - 35.6 °F 51% 30.01 in 10.0 mi Variable 4.6 mph - N/A   Clear
9:55 AM 60.8 °F - 35.6 °F 39% 29.97 in 10.0 mi ESE 8.1 mph - N/A   Clear
10:55 AM 64.4 °F - 37.4 °F 37% 29.95 in 10.0 mi SSE 9.2 mph 17.3 mph N/A   Clear
11:55 AM 66.2 °F - 39.2 °F 37% 29.92 in 10.0 mi SE 10.4 mph - N/A   Clear
12:56 PM 66.2 °F - 42.8 °F 43% 29.88 in 10.0 mi South 12.7 mph 20.7 mph N/A   Clear
1:45 PM 66.2 °F - 42.8 °F 43% 29.84 in 10.0 mi SE 9.2 mph 17.3 mph N/A   Clear
3:55 PM 57.2 °F - 48.2 °F 72% 29.80 in 7.0 mi Variable 3.5 mph - N/A   Overcast
5:53 PM 51.8 °F - 51.8 °F 100% 29.79 in 7.0 mi ENE 3.5 mph - N/A Rain Rain
6:50 PM 53.6 °F - 51.8 °F 94% 29.78 in 10.0 mi Calm Calm - N/A   Mostly Cloudy
7:50 PM 51.8 °F - 51.8 °F 100% 29.77 in 10.0 mi Calm Calm - N/A   Overcast
8:55 PM 51.8 °F - 51.8 °F 100% 29.78 in 10.0 mi North 3.5 mph - N/A   Overcast
9:15 PM 50.0 °F - 50.0 °F 100% 29.77 in 10.0 mi NE 3.5 mph - N/A   Overcast
9:35 PM 50.0 °F - 50.0 °F 100% 29.78 in 10.0 mi Calm Calm - N/A   Overcast
9:55 PM 51.8 °F - 51.8 °F 100% 29.77 in 10.0 mi Calm Calm - N/A   Overcast
10:15 PM 51.8 °F - 51.8 °F 100% 29.78 in 10.0 mi Calm Calm - N/A Rain Light Rain
10:35 PM 51.8 °F - 51.8 °F 100% 29.78 in 7.0 mi Calm Calm - N/A Rain Light Rain
10:55 PM 51.8 °F - 51.8 °F 100% 29.78 in 4.0 mi NW 3.5 mph - 0.02 in Rain Rain
11:15 PM 50.0 °F - 50.0 °F 100% 29.79 in 5.0 mi NW 4.6 mph - 0.01 in Rain Light Rain
11:35 PM 50.0 °F - 50.0 °F 100% 29.78 in 5.0 mi Calm Calm - 0.01 in   Light Drizzle
11:55 PM 50.0 °F - 50.0 °F 100% 29.78 in 5.0 mi Calm Calm - 0.02 in   Overcast